Regional Weather Roundup
Issued by NWS

Home | Current Version | Previous Version | Graphics & Text | Print | Product List | Glossary On
Versions: 1 2 3 4 5 6 7 8 9 10 11 12 13 14 15 16 17 18 19 20 21 22 23 24 25 26 27 28 29 30 31 32 33 34 35 36 37 38 39 40 41 42 43 44 45 46 47 48 49 50
000
ASUS43 KOAX 210110
RWRNE

WEATHER ROUNDUP FOR NEBRASKA
NATIONAL WEATHER SERVICE OMAHA NE
800 PM CDT SUN AUG 20 2017

NOTES: SATELLITE DATA IS BEING USED TO AUGMENT CLOUD COVER ABOVE
       12000 FEET.
       "FAIR" INDICATES FEW OR NO CLOUDS BELOW 12,000 FEET WITH NO
       SIGNIFICANT WEATHER AND/OR OBSTRUCTIONS TO VISIBILITY.


NEZ001>004-019>022-054>056-210200-
NEBRASKA PANHANDLE

CITY           SKY/WX    TMP DP  RH WIND       PRES   REMARKS
SCOTTSBLUFF    CLEAR     82  60  47 SE10      29.98S
ALLIANCE       CLEAR     77  59  53 E14       29.99F
CHADRON        CLEAR     81  54  39 E10       29.95F
GORDON         FAIR      77  55  46 E10       30.00F
KIMBALL        CLOUDY    78  53  42 SE6       30.07R
SIDNEY         CLOUDY    83  62  49 E12       30.04R
$$

NEZ057>060-069>072-079>082-210200-
SOUTHWEST NEBRASKA

CITY           SKY/WX    TMP DP  RH WIND       PRES   REMARKS
NORTH PLATTE   PTCLDY    81  70  69 NE12      29.94S
IMPERIAL       CLOUDY    84  65  52 E6        29.95S
LEXINGTON      PTCLDY    82  74  75 NE8       29.92S
MCCOOK         CLEAR     84  69  60 N6        29.90S
OGALLALA       PTCLDY    82  68  60 E8        29.97S
$$

NEZ005>010-023>029-035>040-094-210200-
NORTH CENTRAL NEBRASKA

CITY           SKY/WX    TMP DP  RH WIND       PRES   REMARKS
VALENTINE      PTCLDY    78  55  44 NE15      29.98F
AINSWORTH      PTCLDY    76  70  82 E9        29.99S
BROKEN BOW     CLOUDY    81  71  71 E9        29.95S
O`NEILL        PTCLDY    77  70  78 SE6       29.97S
ORD            CLOUDY    77  69  76 E8        29.94R
THEDFORD       CLEAR     80  68  66 E12       29.98S
$$

NEZ041-046>049-061>064-073>077-083>087-210200-
SOUTH CENTRAL NEBRASKA

CITY           SKY/WX    TMP DP  RH WIND       PRES   REMARKS
GRAND ISLAND   CLEAR     82  78  88 NE7       29.92R HX  91
AURORA         CLEAR     80  78  91 E8        29.91S
HASTINGS       CLEAR     85  73  67 SE10      29.91S HX  91
HEBRON         CLEAR     88  72  59 SE7       29.89R HX  95
HOLDREGE       CLEAR     82  76  84 E9        29.90S
KEARNEY        CLEAR     82  77  84 NE7       29.91S HX  90
YORK           CLEAR     81  75  83 E8        29.91S
$$

NEZ011>018-030>034-042>045-210200-
NORTHEAST NEBRASKA

CITY           SKY/WX    TMP DP  RH WIND       PRES   REMARKS
NORFOLK        CLOUDY    78  71  79 E5        29.95S
ALBION         CLOUDY    78  73  83 E6        29.95S
BLAIR          MOCLDY    79  67  66 E6        29.95S
COLUMBUS       CLEAR     77  72  84 E6        29.93F
FREMONT        CLEAR     80  68  65 E6        29.94S
TEKAMAH        PTCLDY    78  68  71 SE6       29.94S
WAYNE          CLOUDY    77  74  91 CALM      29.96R
$$

NEZ050>053-065>068-078-088>093-210200-
SOUTHEAST NEBRASKA

CITY           SKY/WX    TMP DP  RH WIND       PRES   REMARKS
LINCOLN        CLEAR     82  72  71 SE10      29.92S
OMAHA EPPLEY   PTCLDY    80  66  62 E8        29.94S
BEATRICE       PTCLDY    83  73  70 SE12G18   29.91S
FALLS CITY     PTCLDY    81  71  71 S10       29.92F
NEBRASKA CITY  PTCLDY    77  72  82 S6        29.94S
PLATTSMOUTH    CLEAR     76  66  71 E6        29.94S
$$

NEZ044-045-051>053-067-210200-
OMAHA AREA

CITY           SKY/WX    TMP DP  RH WIND       PRES   REMARKS
OMAHA EPPLEY   PTCLDY    80  66  62 E8        29.94S
BLAIR          MOCLDY    79  67  66 E6        29.95S
FREMONT        CLEAR     80  68  65 E6        29.94S
MILLARD        CLEAR     82  68  62 SE6       29.93F
OFFUTT AFB     CLEAR     78  67  69 E6        29.93S
PLATTSMOUTH    CLEAR     76  66  71 E6        29.94S
WAHOO          FAIR      79  70  74 SE7       29.93S
$$



USA.gov is the U.S. government's official web portal to all federal, state and local government web resources and services.